Location: Unspecified
(48.7670°N, 0.0000°E)
Time: 17:22:32
(UTC+00:00)

Transit 2A - All Passes

Search period start: 16 June 2019 00:00
Search period end: 26 June 2019 00:00
Orbit: 593 x 966 km, 66.7° (Epoch: 15 June)

Date Brightness Start Highest point End Pass type
(mag) Time Alt. Az. Time Alt. Az. Time Alt. Az.
16 Jun - 00:27:14 10° SSE 00:31:35 20° ESE 00:35:57 10° ENE visible
16 Jun - 02:07:42 10° SSW 02:14:08 87° ESE 02:20:26 10° NE visible
16 Jun - 03:52:41 10° W 03:58:09 29° NW 04:03:28 10° NNE daylight
16 Jun - 05:40:03 10° NW 05:43:29 15° N 05:46:49 10° NNE daylight
16 Jun - 07:25:35 10° NNW 07:29:18 16° NNE 07:32:50 10° NE daylight
16 Jun - 09:08:47 10° NNW 09:14:18 38° NE 09:19:17 10° ESE daylight
16 Jun - 10:52:13 10° NW 10:57:42 47° WSW 11:02:37 10° S daylight
16 Jun - 23:54:42 10° SE 23:57:47 14° ESE 00:00:52 10° ENE visible
17 Jun - 01:33:42 10° SSW 01:40:01 68° ESE 01:46:17 10° NE visible
17 Jun - 03:17:58 10° WSW 03:23:46 35° NW 03:29:24 10° NNE daylight
17 Jun - 05:05:08 10° NW 05:08:53 16° NNW 05:12:32 10° NNE daylight
17 Jun - 06:51:20 10° NNW 06:54:42 15° N 06:57:58 10° NE daylight
17 Jun - 08:34:43 10° NNW 08:39:57 31° NE 08:44:43 10° E daylight
17 Jun - 10:17:58 10° NW 10:23:42 66° WSW 10:28:47 10° SSE daylight
17 Jun - 12:04:35 10° W 12:05:37 11° W 12:06:38 10° WSW daylight
18 Jun - 00:59:51 10° S 01:05:59 51° ESE 01:12:03 10° NE visible
18 Jun - 02:43:23 10° WSW 02:49:27 43° NW 02:55:21 10° NNE visible
18 Jun - 04:30:10 10° WNW 04:34:19 18° NNW 04:38:21 10° NNE daylight
18 Jun - 06:16:58 10° NNW 06:20:06 14° N 06:23:08 10° NE daylight
18 Jun - 08:00:39 10° NNW 08:05:32 26° NNE 08:10:03 10° E daylight
18 Jun - 09:43:48 10° NW 09:49:37 89° SW 09:54:47 10° SSE daylight
18 Jun - 11:28:40 10° WNW 11:31:52 16° WSW 11:34:54 10° SW daylight
19 Jun - 00:26:12 10° S 00:31:59 38° ESE 00:37:45 10° NE visible
19 Jun - 02:08:55 10° SW 02:15:10 54° NW 02:21:17 10° NNE visible
19 Jun - 03:55:13 10° WNW 03:59:48 20° NNW 04:04:14 10° NNE daylight
19 Jun - 05:42:27 10° NNW 05:45:29 14° N 05:48:25 10° NNE daylight
19 Jun - 07:26:34 10° NNW 07:31:05 22° NNE 07:35:17 10° ENE daylight
19 Jun - 09:09:39 10° NNW 09:15:28 69° NE 09:20:38 10° SE daylight
19 Jun - 10:53:51 10° WNW 10:58:04 22° WSW 11:01:59 10° SSW daylight
19 Jun - 23:52:46 10° SSE 23:58:04 29° ESE 00:03:20 10° NE visible
20 Jun - 01:34:34 10° SW 01:40:57 69° NW 01:47:12 10° NNE visible
20 Jun - 03:20:19 10° W 03:25:19 23° NNW 03:30:09 10° NNE daylight
20 Jun - 05:07:46 10° NW 05:10:51 14° N 05:13:51 10° NNE daylight
20 Jun - 06:52:28 10° NNW 06:56:35 19° NNE 07:00:26 10° ENE daylight
20 Jun - 08:35:33 10° NNW 08:41:15 52° NE 08:46:21 10° ESE daylight
20 Jun - 10:19:19 10° NW 10:24:13 31° WSW 10:28:40 10° S daylight
20 Jun - 23:19:37 10° SSE 23:24:11 21° ESE 23:28:44 10° ENE visible
21 Jun - 01:00:23 10° SW 01:06:48 88° NW 01:13:05 10° NE visible
21 Jun - 02:45:29 10° W 02:50:52 28° NW 02:56:05 10° NNE visible
21 Jun - 04:32:57 10° NW 04:36:15 14° N 04:39:26 10° NNE daylight
21 Jun - 06:18:19 10° NNW 06:22:02 16° NNE 06:25:33 10° NE daylight
21 Jun - 08:01:29 10° NNW 08:06:58 40° NE 08:11:55 10° ESE daylight
21 Jun - 09:44:57 10° NW 09:50:17 44° WSW 09:55:05 10° S daylight
21 Jun - 22:46:56 10° SE 22:50:22 15° ESE 22:53:47 10° ENE visible
22 Jun - 00:26:20 10° SSW 00:32:41 72° ESE 00:38:55 10° NE visible
22 Jun - 02:10:46 10° WSW 02:16:28 33° NW 02:22:01 10° NNE visible
22 Jun - 03:58:01 10° NW 04:01:38 16° NNW 04:05:08 10° NNE daylight
22 Jun - 05:44:05 10° NNW 05:47:27 15° NNE 05:50:39 10° NE daylight
22 Jun - 07:27:24 10° NNW 07:32:38 32° NE 07:37:23 10° E daylight
22 Jun - 09:10:41 10° NW 09:16:18 61° WSW 09:21:17 10° SSE daylight
22 Jun - 22:15:49 10° ESE 22:16:36 10° E 22:17:24 10° E visible
22 Jun - 23:52:27 10° SSW 23:58:38 54° ESE 00:04:43 10° NE visible
23 Jun - 01:36:09 10° WSW 01:42:09 41° NW 01:47:57 10° NNE visible
23 Jun - 03:23:03 10° WNW 03:27:04 17° NNW 03:30:57 10° NNE daylight
23 Jun - 05:09:45 10° NNW 05:12:51 14° N 05:15:49 10° NE daylight
23 Jun - 06:53:21 10° NNW 06:58:14 26° NNE 07:02:44 10° E daylight
23 Jun - 08:36:29 10° NW 08:42:14 84° WSW 08:47:20 10° SSE daylight
23 Jun - 10:21:38 10° WNW 10:24:24 14° WSW 10:27:03 10° SW daylight
23 Jun - 23:18:45 10° S 23:24:38 41° ESE 23:30:26 10° NE visible
24 Jun - 01:01:39 10° WSW 01:07:52 51° NW 01:13:54 10° NNE visible
24 Jun - 02:48:05 10° WNW 02:52:32 20° NNW 02:56:49 10° NNE visible
24 Jun - 04:35:17 10° NNW 04:38:13 14° N 04:41:04 10° NNE daylight
24 Jun - 06:19:16 10° NNW 06:23:47 22° NNE 06:27:59 10° ENE daylight
24 Jun - 08:02:21 10° NNW 08:08:06 73° NE 08:13:13 10° SE daylight
24 Jun - 09:46:39 10° WNW 09:50:37 20° WSW 09:54:17 10° SSW daylight
24 Jun - 22:45:15 10° S 22:50:41 30° ESE 22:56:03 10° NE visible
25 Jun - 00:27:16 10° SW 00:33:38 66° NW 00:39:49 10° NNE visible
25 Jun - 02:13:10 10° W 02:18:02 23° NNW 02:22:44 10° NNE visible
25 Jun - 04:00:38 10° NNW 04:03:36 14° N 04:06:29 10° NNE daylight
25 Jun - 05:45:11 10° NNW 05:49:17 19° NNE 05:53:08 10° ENE daylight
25 Jun - 07:28:14 10° NNW 07:33:53 55° NE 07:38:57 10° SE daylight
25 Jun - 09:12:04 10° NW 09:16:46 29° WSW 09:21:03 10° SSW daylight
25 Jun - 22:12:02 10° SSE 22:16:47 23° ESE 22:21:29 10° ENE visible
